QPF
0.01 0.01 0.01 0.02 0.02 0.02 0.02 0.02 0.01 0.00 0.00 0.00 0.00 0.00 0.00 0.00 0.00 0.00 0.00 0.00 0.00 0.00 0.00 0.00 0.00 0.00 0.00 0.00 0.00 0.00 0.00 0.00 0.00 0.00 0.00 0.00 0.00 0.00 0.00 0.00 0.00 0.00 0.00 0.00
0.01 0.00 0.00 0.01 0.01 0.02 0.02 0.01 0.01 0.00 0.00 0.00 0.00 0.00 0.00 0.00 0.00 0.00 0.00 0.00 0.00 0.00 0.00 0.00 0.00 0.00 0.00 0.00 0.00 0.00 0.00 0.00 0.00 0.00 0.00 0.00 0.00 0.00 0.00 0.00 0.00 0.00 0.00 0.00
0.03 0.01 0.01 0.02 0.02 0.02 0.02 0.01 0.01 0.01 0.00 0.00 0.00 0.00 0.00 0.00 0.00 0.00 0.00 0.00 0.00 0.00 0.00 0.00 0.00 0.00 0.00 0.00 0.00 0.00 0.00 0.00 0.00 0.00 0.00 0.00 0.00 0.00 0.00 0.00 0.00 0.00 0.00 0.00
0.03 0.03 0.04 0.03 0.02 0.02 0.02 0.02 0.01 0.01 0.00 0.00 0.00 0.00 0.00 0.00 0.00 0.00 0.00 0.00 0.00 0.00 0.00 0.00 0.00 0.00 0.00 0.00 0.00 0.00 0.00 0.00 0.00 0.00 0.00 0.00 0.00 0.00 0.00 0.00 0.00 0.00 0.00 0.00
0.04 0.04 0.03 0.02 0.01 0.02 0.03 0.02 0.02 0.01 0.00 0.00 0.00 0.00 0.00 0.00 0.00 0.00 0.00 0.00 0.00 0.00 0.00 0.00 0.00 0.00 0.00 0.00 0.00 0.00 0.00 0.00 0.00 0.00 0.00 0.00 0.00 0.00 0.00 0.00 0.00 0.00 0.00 0.00
0.04 0.03 0.03 0.02 0.01 0.01 0.03 0.03 0.02 0.02 0.02 0.01 0.01 0.01 0.01 0.00 0.00 0.00 0.00 0.00 0.00 0.00 0.00 0.00 0.00 0.00 0.01 0.00 0.00 0.00 0.00 0.00 0.00 0.00 0.00 0.00 0.00 0.00 0.00 0.00 0.00 0.00 0.00 0.00
0.04 0.03 0.02 0.01 0.01 0.01 0.02 0.03 0.02 0.02 0.02 0.02 0.02 0.02 0.01 0.01 0.00 0.00 0.00 0.00 0.00 0.00 0.00 0.00 0.00 0.01 0.01 0.01 0.00 0.00 0.00 0.00 0.00 0.00 0.00 0.00 0.00 0.00 0.00 0.00 0.00 0.00 0.00 0.00
0.04 0.03 0.02 0.01 0.01 0.02 0.03 0.02 0.02 0.02 0.02 0.02 0.03 0.03 0.02 0.02 0.01 0.01 0.01 0.00 0.00 0.00 0.00 0.00 0.00 0.00 0.01 0.01 0.00 0.00 0.00 0.00 0.00 0.00 0.00 0.00 0.00 0.00 0.00 0.00 0.00 0.00 0.00 0.00
0.02 0.02 0.02 0.02 0.02 0.02 0.02 0.02 0.02 0.03 0.03 0.03 0.04 0.03 0.02 0.02 0.02 0.02 0.01 0.01 0.01 0.00 0.00 0.00 0.00 0.00 0.01 0.01 0.00 0.00 0.00 0.00 0.00 0.00 0.00 0.00 0.00 0.00 0.00 0.00 0.00 0.00 0.00 0.00
0.02 0.02 0.02 0.02 0.02 0.02 0.01 0.01 0.02 0.03 0.03 0.03 0.03 0.04 0.03 0.02 0.02 0.01 0.01 0.01 0.01 0.01 0.01 0.01 0.01 0.01 0.01 0.01 0.01 0.00 0.00 0.00 0.00 0.00 0.00 0.00 0.00 0.01 0.00 0.00 0.00 0.00 0.00 0.00
0.02 0.02 0.02 0.02 0.02 0.02 0.01 0.01 0.02 0.02 0.02 0.02 0.02 0.02 0.03 0.03 0.02 0.02 0.02 0.02 0.01 0.01 0.01 0.01 0.01 0.01 0.01 0.01 0.01 0.00 0.00 0.00 0.01 0.01 0.01 0.01 0.01 0.00 0.00 0.00 0.01 0.01 0.01 0.01
0.02 0.02 0.02 0.02 0.02 0.02 0.01 0.01 0.01 0.01 0.02 0.02 0.01 0.01 0.02 0.02 0.03 0.02 0.02 0.01 0.01 0.01 0.01 0.00 0.00 0.00 0.00 0.00 0.01 0.01 0.01 0.01 0.01 0.01 0.01 0.01 0.01 0.00 0.00 0.00 0.00 0.00 0.01 0.01
0.02 0.02 0.02 0.02 0.02 0.01 0.01 0.01 0.01 0.01 0.01 0.01 0.01 0.01 0.01 0.01 0.02 0.02 0.01 0.01 0.01 0.01 0.00 0.00 0.00 0.00 0.00 0.00 0.01 0.01 0.01 0.01 0.01 0.01 0.01 0.01 0.00 0.00 0.00 0.00 0.00 0.00 0.00 0.00
0.02 0.02 0.02 0.02 0.02 0.01 0.01 0.01 0.01 0.01 0.01 0.01 0.01 0.01 0.01 0.01 0.01 0.01 0.01 0.01 0.00 0.00 0.00 0.00 0.00 0.00 0.00 0.00 0.00 0.01 0.01 0.01 0.01 0.01 0.01 0.01 0.01 0.00 0.00 0.00 0.00 0.00 0.00 0.01
0.02 0.02 0.03 0.03 0.03 0.02 0.02 0.02 0.01 0.01 0.01 0.01 0.01 0.01 0.00 0.00 0.01 0.01 0.01 0.01 0.01 0.00 0.00 0.00 0.01 0.01 0.01 0.00 0.00 0.01 0.01 0.01 0.01 0.01 0.01 0.01 0.01 0.00 0.00 0.00 0.00 0.00 0.00 0.00
0.02 0.02 0.03 0.03 0.03 0.03 0.03 0.02 0.02 0.02 0.01 0.01 0.01 0.01 0.01 0.01 0.01 0.01 0.01 0.01 0.01 0.01 0.00 0.00 0.01 0.01 0.01 0.01 0.01 0.01 0.01 0.01 0.01 0.01 0.01 0.01 0.01 0.01 0.00 0.00 0.00 0.00 0.00 0.01
0.02 0.02 0.02 0.02 0.03 0.03 0.02 0.02 0.02 0.01 0.01 0.01 0.01 0.02 0.01 0.01 0.01 0.01 0.01 0.01 0.01 0.01 0.00 0.00 0.01 0.01 0.01 0.01 0.01 0.01 0.01 0.01 0.01 0.01 0.01 0.01 0.01 0.01 0.01 0.01 0.01 0.01 0.01 0.01
0.02 0.02 0.02 0.02 0.02 0.02 0.02 0.01 0.01 0.01 0.01 0.01 0.02 0.02 0.01 0.01 0.01 0.01 0.01 0.01 0.01 0.01 0.01 0.01 0.01 0.01 0.01 0.01 0.00 0.00 0.01 0.01 0.01 0.01 0.01 0.01 0.01 0.01 0.01 0.01 0.01 0.01 0.01 0.01
0.02 0.02 0.02 0.02 0.02 0.02 0.01 0.01 0.01 0.01 0.01 0.01 0.02 0.02 0.01 0.01 0.01 0.01 0.01 0.01 0.01 0.01 0.01 0.01 0.01 0.01 0.00 0.00 0.00 0.01 0.01 0.00 0.00 0.01 0.01 0.01 0.01 0.01 0.01 0.01 0.01 0.01 0.01 0.01
0.01 0.01 0.01 0.02 0.02 0.02 0.01 0.01 0.01 0.01 0.01 0.01 0.01 0.01 0.01 0.01 0.01 0.01 0.01 0.01 0.01 0.01 0.01 0.00 0.01 0.00 0.00 0.01 0.01 0.01 0.01 0.01 0.01 0.01 0.01 0.01 0.01 0.01 0.01 0.01 0.01 0.01 0.01 0.01
0.01 0.01 0.01 0.01 0.01 0.01 0.01 0.01 0.01 0.01 0.01 0.01 0.01 0.01 0.01 0.01 0.01 0.01 0.01 0.01 0.01 0.01 0.00 0.00 0.00 0.01 0.01 0.01 0.01 0.01 0.01 0.01 0.01 0.01 0.01 0.01 0.01 0.01 0.01 0.01 0.01 0.01 0.01 0.01
0.01 0.01 0.01 0.01 0.01 0.01 0.01 0.01 0.01 0.01 0.01 0.01 0.01 0.01 0.01 0.01 0.01 0.01 0.01 0.01 0.01 0.01 0.00 0.00 0.01 0.01 0.01 0.01 0.01 0.01 0.01 0.01 0.01 0.01 0.01 0.01 0.01 0.01 0.01 0.01 0.01 0.01 0.01 0.01
0.01 0.01 0.01 0.01 0.01 0.01 0.01 0.01 0.01 0.01 0.01 0.01 0.01 0.01 0.01 0.01 0.01 0.01 0.01 0.01 0.01 0.01 0.01 0.01 0.01 0.01 0.01 0.01 0.01 0.01 0.01 0.01 0.01 0.01 0.01 0.01 0.01 0.01 0.01 0.01 0.01 0.01 0.01 0.01
0.01 0.01 0.01 0.01 0.01 0.01 0.01 0.01 0.01 0.01 0.01 0.01 0.01 0.01 0.01 0.01 0.01 0.01 0.01 0.01 0.01 0.01 0.01 0.01 0.01 0.02 0.02 0.01 0.01 0.01 0.01 0.01 0.01 0.01 0.01 0.01 0.01 0.01 0.01 0.01 0.01 0.01 0.01 0.01
0.01 0.01 0.01 0.01 0.01 0.01 0.01 0.01 0.02 0.02 0.01 0.01 0.01 0.01 0.01 0.01 0.01 0.01 0.02 0.02 0.01 0.01 0.01 0.01 0.01 0.01 0.01 0.01 0.01 0.01 0.01 0.01 0.01 0.01 0.01 0.01 0.01 0.01 0.01 0.01 0.02 0.01 0.01 0.01
0.01 0.00 0.01 0.01 0.01 0.01 0.01 0.01 0.01 0.02 0.01 0.01 0.01 0.01 0.01 0.01 0.01 0.01 0.01 0.02 0.02 0.01 0.01 0.01 0.01 0.01 0.01 0.01 0.01 0.01 0.01 0.01 0.01 0.01 0.01 0.01 0.01 0.01 0.01 0.01 0.01 0.01 0.01 0.01
0.00 0.01 0.00 0.01 0.01 0.01 0.01 0.01 0.01 0.01 0.01 0.01 0.01 0.01 0.01 0.01 0.01 0.01 0.01 0.01 0.02 0.01 0.01 0.01 0.01 0.01 0.01 0.01 0.01 0.01 0.01 0.01 0.01 0.01 0.01 0.01 0.01 0.01 0.01 0.01 0.01 0.01 0.01 0.01
MSLP
1017.92 1017.42 1016.85 1016.16 1015.32 1014.29 1013.09 1011.76 1010.38 1009.06 1007.91 1007.04 1006.53 1006.39 1006.60 1007.06 1007.67 1008.26 1008.71 1008.90 1008.75 1008.25 1007.46 1006.47 1005.40 1004.37 1003.52 1002.92 1002.64 1002.68 1003.00 1003.56 1004.30 1005.14 1006.05 1006.98 1007.91 1008.84 1009.78 1010.72 1011.66 1012.59 1013.50 1014.38
1017.55 1017.05 1016.51 1015.87 1015.10 1014.17 1013.10 1011.92 1010.71 1009.56 1008.57 1007.83 1007.40 1007.32 1007.53 1007.97 1008.52 1009.05 1009.44 1009.57 1009.40 1008.90 1008.12 1007.15 1006.09 1005.07 1004.18 1003.53 1003.15 1003.06 1003.25 1003.66 1004.25 1004.97 1005.76 1006.61 1007.48 1008.38 1009.29 1010.22 1011.15 1012.07 1012.97 1013.83
1017.06 1016.56 1016.04 1015.45 1014.78 1013.99 1013.09 1012.10 1011.10 1010.16 1009.35 1008.75 1008.43 1008.38 1008.59 1008.97 1009.45 1009.90 1010.21 1010.30 1010.11 1009.63 1008.90 1007.99 1006.99 1006.01 1005.15 1004.47 1004.03 1003.84 1003.88 1004.14 1004.56 1005.11 1005.76 1006.48 1007.24 1008.06 1008.91 1009.79 1010.68 1011.58 1012.46 1013.30
1016.63 1016.12 1015.63 1015.12 1014.56 1013.92 1013.22 1012.46 1011.68 1010.96 1010.34 1009.90 1009.67 1009.65 1009.84 1010.16 1010.54 1010.88 1011.11 1011.14 1010.93 1010.48 1009.82 1009.00 1008.10 1007.21 1006.40 1005.73 1005.25 1004.98 1004.89 1004.98 1005.23 1005.59 1006.05 1006.60 1007.23 1007.91 1008.66 1009.46 1010.28 1011.13 1011.96 1012.78
1016.38 1015.90 1015.46 1015.04 1014.60 1014.14 1013.64 1013.10 1012.56 1012.04 1011.61 1011.31 1011.15 1011.15 1011.29 1011.53 1011.80 1012.03 1012.16 1012.13 1011.90 1011.48 1010.88 1010.16 1009.37 1008.58 1007.85 1007.22 1006.73 1006.39 1006.19 1006.13 1006.19 1006.36 1006.63 1007.00 1007.45 1007.98 1008.59 1009.27 1010.00 1010.76 1011.53 1012.29
1016.39 1015.96 1015.60 1015.29 1015.00 1014.70 1014.39 1014.06 1013.73 1013.40 1013.13 1012.93 1012.82 1012.82 1012.90 1013.04 1013.18 1013.29 1013.32 1013.21 1012.96 1012.56 1012.03 1011.41 1010.73 1010.05 1009.40 1008.83 1008.34 1007.95 1007.67 1007.48 1007.38 1007.37 1007.46 1007.63 1007.91 1008.27 1008.73 1009.28 1009.88 1010.54 1011.22 1011.89
1016.64 1016.31 1016.05 1015.87 1015.72 1015.59 1015.45 1015.29 1015.12 1014.94 1014.78 1014.65 1014.56 1014.53 1014.53 1014.56 1014.58 1014.56 1014.48 1014.31 1014.03 1013.65 1013.18 1012.64 1012.08 1011.50 1010.94 1010.43 1009.96 1009.56 1009.21 1008.92 1008.70 1008.55 1008.47 1008.48 1008.59 1008.80 1009.11 1009.51 1009.98 1010.51 1011.08 1011.66
1017.09 1016.88 1016.76 1016.70 1016.68 1016.68 1016.68 1016.64 1016.58 1016.50 1016.40 1016.29 1016.19 1016.10 1016.02 1015.94 1015.84 1015.72 1015.54 1015.30 1015.00 1014.63 1014.21 1013.76 1013.29 1012.81 1012.35 1011.90 1011.48 1011.08 1010.70 1010.36 1010.05 1009.80 1009.60 1009.49 1009.46 1009.54 1009.71 1009.98 1010.32 1010.72 1011.17 1011.64
1017.65 1017.58 1017.59 1017.66 1017.75 1017.84 1017.92 1017.96 1017.95 1017.90 1017.81 1017.69 1017.54 1017.39 1017.22 1017.04 1016.84 1016.62 1016.37 1016.08 1015.77 1015.42 1015.06 1014.68 1014.29 1013.91 1013.53 1013.15 1012.78 1012.41 1012.04 1011.68 1011.34 1011.03 1010.77 1010.58 1010.46 1010.44 1010.51 1010.66 1010.89 1011.18 1011.51 1011.88
1018.24 1018.32 1018.45 1018.61 1018.78 1018.92 1019.03 1019.07 1019.06 1018.99 1018.86 1018.69 1018.49 1018.26 1018.02 1017.76 1017.48 1017.20 1016.90 1016.59 1016.28 1015.96 1015.64 1015.33 1015.03 1014.72 1014.43 1014.13 1013.81 1013.49 1013.16 1012.82 1012.48 1012.17 1011.89 1011.66 1011.51 1011.43 1011.43 1011.51 1011.65 1011.84 1012.08 1012.34
1018.81 1019.02 1019.25 1019.48 1019.67 1019.82 1019.89 1019.90 1019.83 1019.70 1019.50 1019.27 1019.00 1018.70 1018.39 1018.08 1017.76 1017.44 1017.12 1016.81 1016.52 1016.23 1015.96 1015.71 1015.47 1015.24 1015.02 1014.79 1014.54 1014.28 1014.00 1013.70 1013.41 1013.12 1012.87 1012.66 1012.50 1012.41 1012.38 1012.41 1012.49 1012.62 1012.78 1012.96
1019.37 1019.67 1019.96 1020.20 1020.38 1020.48 1020.48 1020.41 1020.25 1020.03 1019.75 1019.44 1019.10 1018.75 1018.40 1018.06 1017.72 1017.40 1017.08 1016.79 1016.52 1016.27 1016.04 1015.84 1015.66 1015.48 1015.32 1015.14 1014.96 1014.76 1014.54 1014.31 1014.07 1013.84 1013.63 1013.46 1013.33 1013.26 1013.23 1013.25 1013.30 1013.39 1013.50 1013.63
1019.91 1020.26 1020.56 1020.78 1020.91 1020.92 1020.83 1020.65 1020.39 1020.07 1019.71 1019.33 1018.94 1018.56 1018.18 1017.83 1017.49 1017.17 1016.88 1016.60 1016.36 1016.14 1015.94 1015.77 1015.62 1015.48 1015.36 1015.23 1015.10 1014.95 1014.79 1014.62 1014.45 1014.28 1014.14 1014.02 1013.93 1013.89 1013.88 1013.91 1013.96 1014.02 1014.11 1014.20
1020.43 1020.79 1021.06 1021.23 1021.27 1021.19 1021.00 1020.71 1020.35 1019.94 1019.51 1019.08 1018.65 1018.25 1017.87 1017.51 1017.19 1016.88 1016.60 1016.34 1016.10 1015.89 1015.71 1015.55 1015.41 1015.29 1015.19 1015.08 1014.99 1014.88 1014.77 1014.66 1014.55 1014.45 1014.36 1014.29 1014.26 1014.25 1014.26 1014.31 1014.36 1014.43 1014.50 1014.58
1020.91 1021.24 1021.45 1021.54 1021.49 1021.31 1021.02 1020.64 1020.20 1019.73 1019.25 1018.79 1018.34 1017.93 1017.56 1017.21 1016.89 1016.59 1016.30 1016.04 1015.80 1015.58 1015.38 1015.20 1015.06 1014.94 1014.83 1014.75 1014.67 1014.60 1014.53 1014.46 1014.40 1014.35 1014.31 1014.29 1014.29 1014.31 1014.36 1014.41 1014.48 1014.55 1014.62 1014.70
1021.31 1021.57 1021.71 1021.71 1021.57 1021.31 1020.94 1020.49 1020.00 1019.49 1018.99 1018.51 1018.07 1017.66 1017.29 1016.94 1016.62 1016.30 1016.00 1015.72 1015.44 1015.19 1014.95 1014.75 1014.58 1014.44 1014.33 1014.24 1014.18 1014.13 1014.09 1014.06 1014.04 1014.03 1014.03 1014.04 1014.07 1014.12 1014.17 1014.24 1014.31 1014.39 1014.47 1014.55
1021.56 1021.74 1021.79 1021.71 1021.49 1021.16 1020.73 1020.25 1019.74 1019.22 1018.72 1018.25 1017.81 1017.41 1017.04 1016.68 1016.33 1016.00 1015.66 1015.32 1015.00 1014.69 1014.42 1014.17 1013.97 1013.80 1013.68 1013.60 1013.55 1013.52 1013.51 1013.52 1013.53 1013.55 1013.57 1013.61 1013.65 1013.71 1013.77 1013.85 1013.92 1014.01 1014.09 1014.19
1021.61 1021.70 1021.67 1021.50 1021.22 1020.84 1020.39 1019.89 1019.38 1018.87 1018.38 1017.93 1017.50 1017.10 1016.72 1016.34 1015.97 1015.58 1015.19 1014.80 1014.42 1014.06 1013.73 1013.44 1013.21 1013.03 1012.91 1012.83 1012.80 1012.80 1012.82 1012.86 1012.90 1012.95 1013.00 1013.05 1013.10 1013.16 1013.23 1013.31 1013.39 1013.48 1013.57 1013.68
1021.44 1021.44 1021.32 1021.09 1020.75 1020.34 1019.87 1019.37 1018.87 1018.38 1017.91 1017.47 1017.05 1016.65 1016.25 1015.84 1015.42 1014.98 1014.53 1014.08 1013.64 1013.23 1012.86 1012.55 1012.30 1012.12 1012.00 1011.95 1011.94 1011.98 1012.04 1012.11 1012.19 1012.26 1012.33 1012.40 1012.47 1012.53 1012.60 1012.68 1012.77 1012.87 1012.98 1013.10
1021.09 1021.00 1020.80 1020.50 1020.12 1019.68 1019.20 1018.70 1018.21 1017.73 1017.27 1016.84 1016.41 1015.98 1015.55 1015.10 1014.63 1014.14 1013.64 1013.14 1012.65 1012.21 1011.81 1011.49 1011.24 1011.07 1010.98 1010.96 1010.99 1011.07 1011.17 1011.28 1011.39 1011.50 1011.60 1011.68 1011.76 1011.84 1011.92 1012.01 1012.12 1012.23 1012.37 1012.52
1020.63 1020.44 1020.17 1019.81 1019.38 1018.91 1018.42 1017.91 1017.41 1016.93 1016.47 1016.01 1015.56 1015.10 1014.63 1014.13 1013.61 1013.07 1012.52 1011.99 1011.47 1011.01 1010.61 1010.28 1010.05 1009.91 1009.85 1009.87 1009.95 1010.06 1010.21 1010.36 1010.51 1010.65 1010.77 1010.88 1010.99 1011.09 1011.19 1011.31 1011.43 1011.58 1011.75 1011.93
1020.15 1019.88 1019.53 1019.12 1018.64 1018.13 1017.60 1017.08 1016.55 1016.04 1015.55 1015.06 1014.56 1014.06 1013.53 1012.98 1012.41 1011.83 1011.25 1010.68 1010.16 1009.69 1009.30 1008.99 1008.78 1008.67 1008.64 1008.70 1008.81 1008.96 1009.14 1009.33 1009.51 1009.68 1009.83 1009.97 1010.11 1010.24 1010.38 1010.53 1010.70 1010.89 1011.10 1011.33
1019.73 1019.40 1018.98 1018.50 1017.98 1017.42 1016.85 1016.28 1015.71 1015.15 1014.60 1014.05 1013.50 1012.93 1012.35 1011.75 1011.13 1010.51 1009.91 1009.33 1008.80 1008.33 1007.95 1007.67 1007.48 1007.39 1007.39 1007.46 1007.60 1007.77 1007.97 1008.17 1008.38 1008.57 1008.76 1008.93 1009.11 1009.28 1009.47 1009.67 1009.89 1010.13 1010.40 1010.68
1019.43 1019.03 1018.56 1018.02 1017.44 1016.84 1016.21 1015.58 1014.96 1014.33 1013.71 1013.10 1012.47 1011.84 1011.19 1010.54 1009.88 1009.23 1008.60 1008.01 1007.48 1007.02 1006.65 1006.38 1006.20 1006.11 1006.12 1006.19 1006.32 1006.50 1006.70 1006.91 1007.12 1007.34 1007.55 1007.76 1007.98 1008.20 1008.44 1008.71 1008.99 1009.29 1009.62 1009.96
1019.25 1018.80 1018.27 1017.69 1017.06 1016.40 1015.72 1015.03 1014.33 1013.64 1012.95 1012.25 1011.56 1010.86 1010.15 1009.45 1008.75 1008.07 1007.42 1006.82 1006.29 1005.83 1005.45 1005.17 1004.98 1004.88 1004.87 1004.92 1005.03 1005.19 1005.37 1005.57 1005.79 1006.01 1006.25 1006.50 1006.76 1007.04 1007.34 1007.67 1008.02 1008.39 1008.77 1009.17
1019.13 1018.64 1018.08 1017.45 1016.78 1016.08 1015.34 1014.60 1013.84 1013.09 1012.33 1011.57 1010.81 1010.04 1009.29 1008.54 1007.81 1007.10 1006.43 1005.82 1005.27 1004.79 1004.40 1004.10 1003.88 1003.75 1003.69 1003.70 1003.77 1003.89 1004.05 1004.23 1004.44 1004.68 1004.94 1005.22 1005.53 1005.86 1006.23 1006.61 1007.03 1007.46 1007.91 1008.36
1019.01 1018.49 1017.90 1017.25 1016.55 1015.81 1015.04 1014.25 1013.45 1012.64 1011.84 1011.02 1010.21 1009.41 1008.61 1007.83 1007.07 1006.34 1005.66 1005.02 1004.45 1003.95 1003.53 1003.18 1002.92 1002.74 1002.63 1002.59 1002.61 1002.69 1002.82 1002.98 1003.19 1003.44 1003.72 1004.04 1004.39 1004.78 1005.20 1005.64 1006.11 1006.60 1007.09 1007.58
Thickness
5448 5457 5462 5465 5467 5470 5475 5487 5498 5510 5508 5508 5505 5505 5503 5502 5502 5504 5506 5508 5510 5513 5515 5517 5519 5521 5522 5523 5523 5523 5523 5523 5522 5521 5519 5518 5516 5514 5511 5509 5507 5504 5501 5498
5434 5445 5451 5452 5458 5464 5470 5477 5485 5490 5492 5494 5491 5490 5490 5491 5491 5493 5494 5496 5497 5499 5502 5504 5506 5507 5509 5510 5510 5511 5512 5511 5510 5509 5508 5507 5505 5503 5501 5498 5496 5494 5491 5488
5435 5434 5442 5447 5447 5453 5460 5466 5474 5483 5486 5480 5479 5479 5481 5481 5481 5482 5483 5484 5485 5488 5489 5491 5493 5494 5496 5497 5498 5499 5499 5498 5498 5497 5496 5495 5493 5492 5490 5488 5486 5484 5481 5479
5423 5427 5435 5437 5432 5438 5444 5447 5455 5462 5464 5466 5469 5467 5468 5470 5471 5471 5471 5472 5474 5475 5476 5478 5480 5481 5482 5484 5486 5486 5486 5485 5485 5484 5484 5483 5482 5480 5479 5477 5475 5473 5470 5468
5416 5426 5430 5425 5421 5423 5434 5438 5439 5446 5451 5451 5452 5455 5457 5456 5458 5460 5460 5461 5462 5463 5464 5465 5466 5468 5470 5471 5472 5473 5473 5472 5472 5472 5472 5471 5470 5469 5467 5466 5464 5462 5460 5457
5408 5422 5429 5420 5409 5410 5423 5434 5430 5433 5437 5439 5444 5457 5454 5445 5445 5446 5447 5448 5448 5449 5451 5452 5453 5455 5458 5459 5459 5459 5459 5459 5459 5459 5459 5459 5458 5457 5455 5454 5452 5450 5448 5446
5400 5409 5412 5395 5394 5405 5423 5429 5417 5421 5425 5428 5435 5443 5435 5432 5431 5433 5434 5434 5435 5436 5437 5438 5439 5442 5444 5444 5445 5444 5445 5445 5446 5446 5447 5447 5446 5445 5444 5443 5441 5439 5437 5435
5389 5401 5401 5379 5389 5398 5402 5400 5404 5408 5412 5414 5416 5417 5417 5417 5417 5419 5419 5419 5421 5422 5422 5423 5425 5428 5429 5429 5429 5430 5431 5433 5434 5434 5434 5433 5433 5432 5432 5431 5430 5428 5426 5423
5370 5375 5368 5366 5372 5377 5382 5388 5391 5395 5397 5399 5400 5402 5402 5403 5404 5404 5405 5406 5407 5408 5408 5409 5411 5413 5415 5414 5415 5417 5419 5420 5420 5420 5421 5421 5421 5420 5419 5418 5417 5416 5414 5412
5352 5355 5357 5359 5362 5367 5371 5375 5378 5382 5385 5388 5389 5389 5389 5390 5390 5391 5392 5393 5394 5396 5396 5396 5397 5398 5399 5400 5402 5404 5406 5407 5407 5408 5409 5408 5408 5407 5407 5406 5405 5404 5403 5402
5344 5346 5348 5351 5352 5355 5359 5363 5366 5369 5373 5375 5377 5377 5378 5379 5379 5379 5380 5381 5382 5384 5384 5384 5384 5385 5386 5387 5389 5392 5393 5394 5395 5395 5396 5396 5395 5395 5394 5394 5393 5393 5392 5391
5343 5336 5337 5338 5338 5342 5346 5349 5353 5357 5360 5362 5365 5365 5366 5367 5367 5367 5368 5369 5370 5371 5372 5372 5372 5373 5374 5375 5377 5379 5380 5381 5382 5383 5384 5384 5384 5384 5383 5382 5382 5381 5380 5380
5319 5321 5323 5325 5328 5331 5334 5338 5341 5344 5347 5349 5351 5353 5354 5355 5355 5355 5356 5357 5358 5359 5359 5360 5360 5361 5362 5363 5365 5366 5367 5368 5369 5370 5371 5372 5372 5373 5373 5372 5371 5370 5370 5370
5309 5312 5315 5318 5319 5320 5323 5325 5328 5331 5334 5337 5339 5340 5342 5343 5343 5344 5344 5345 5345 5346 5347 5348 5349 5349 5350 5351 5353 5354 5355 5356 5357 5358 5359 5360 5360 5360 5361 5361 5361 5361 5360 5359
5302 5304 5306 5307 5308 5310 5312 5315 5317 5319 5322 5324 5326 5328 5330 5331 5332 5332 5332 5333 5334 5335 5336 5337 5337 5338 5338 5340 5341 5342 5343 5344 5345 5346 5347 5347 5348 5348 5349 5349 5349 5350 5349 5349
5293 5295 5296 5298 5299 5301 5303 5305 5307 5308 5310 5312 5314 5316 5317 5319 5320 5320 5321 5322 5323 5324 5325 5325 5326 5327 5327 5328 5330 5331 5332 5332 5333 5334 5335 5336 5336 5337 5337 5337 5338 5338 5339 5338
5287 5289 5290 5291 5291 5292 5293 5294 5296 5297 5299 5301 5303 5304 5306 5307 5308 5309 5310 5310 5311 5312 5313 5314 5315 5316 5317 5318 5319 5320 5321 5321 5322 5323 5324 5325 5325 5325 5326 5326 5327 5328 5328 5327
5280 5282 5283 5283 5283 5283 5284 5285 5286 5287 5289 5290 5292 5293 5294 5296 5297 5298 5298 5299 5300 5301 5302 5303 5305 5306 5307 5308 5308 5309 5310 5311 5312 5313 5313 5314 5314 5315 5315 5316 5317 5318 5318 5318
5274 5274 5275 5275 5275 5275 5275 5276 5277 5278 5279 5281 5282 5283 5284 5285 5286 5287 5288 5289 5291 5293 5293 5294 5295 5296 5297 5298 5299 5300 5300 5301 5302 5302 5303 5304 5305 5305 5306 5306 5308 5308 5309 5309
5268 5268 5268 5267 5267 5267 5267 5268 5269 5270 5271 5272 5273 5274 5275 5275 5276 5277 5279 5281 5282 5283 5284 5285 5286 5288 5288 5289 5289 5290 5291 5292 5293 5293 5294 5295 5296 5296 5297 5298 5299 5299 5300 5301
5261 5261 5260 5260 5260 5259 5259 5260 5260 5261 5262 5263 5264 5265 5266 5266 5267 5269 5271 5274 5274 5274 5276 5277 5279 5280 5280 5281 5282 5283 5283 5284 5284 5285 5285 5286 5287 5288 5289 5290 5290 5291 5293 5294
5253 5253 5253 5253 5253 5252 5252 5252 5253 5254 5254 5255 5256 5256 5257 5259 5260 5262 5263 5265 5266 5267 5269 5270 5271 5272 5273 5274 5275 5276 5276 5276 5277 5278 5278 5279 5280 5280 5281 5282 5283 5284 5285 5287
5247 5246 5246 5246 5246 5246 5245 5245 5246 5246 5247 5248 5248 5249 5251 5252 5254 5256 5258 5258 5259 5261 5262 5264 5265 5267 5268 5269 5269 5269 5270 5270 5270 5271 5271 5272 5273 5274 5274 5275 5277 5278 5279 5281
5240 5240 5240 5240 5239 5239 5240 5241 5239 5240 5240 5240 5242 5242 5244 5246 5248 5249 5250 5252 5253 5255 5256 5258 5260 5262 5262 5263 5263 5263 5264 5264 5265 5265 5266 5266 5267 5268 5269 5270 5272 5272 5274 5275
5234 5233 5233 5233 5235 5236 5236 5234 5234 5234 5235 5236 5237 5238 5239 5241 5242 5244 5245 5246 5248 5250 5251 5253 5255 5256 5256 5257 5258 5258 5259 5259 5260 5260 5261 5261 5262 5264 5265 5266 5267 5268 5269 5271
5229 5230 5230 5229 5229 5230 5230 5230 5231 5231 5232 5233 5234 5235 5236 5237 5238 5239 5240 5242 5243 5245 5246 5247 5249 5250 5251 5252 5252 5253 5254 5254 5255 5256 5257 5258 5259 5260 5262 5263 5264 5265 5266 5268
5224 5224 5223 5224 5224 5224 5224 5224 5225 5227 5227 5229 5230 5231 5232 5234 5235 5236 5237 5238 5239 5240 5242 5243 5244 5245 5246 5247 5248 5249 5250 5251 5252 5253 5254 5255 5256 5258 5259 5260 5261 5262 5264 5266